Location: ???????
(55.3754°N, 39.3545°E)
Time: 15:54:34
(UTC+00:00)

Cosmos 2218 Rocket - Pass Details

Date: 14 April 2026
Orbit: 956 x 1005 km, 82.9° (Epoch: 17 May)

Event Time Altitude Azimuth Distance (km) Brightness Sun altitude
Rises 17:54:46 0° 183° (S) 3,627 6.7 -12.0°
Reaches altitude 10° 17:57:15 10° 182° (S) 2,683 6.0 -12.3°
Maximum altitude 18:03:22 77° 98° (E) 985 3.9 -12.9°
Drops below altitude 10° 18:09:33 10° 13° (NNE) 2,705 6.7 -13.6°
Sets 18:12:04 0° 13° (NNE) 3,660 7.4 -13.9°
